Flag Weather past 2 weeks in Vejle, Denmark

Now
34 °F

Partly sunny.


Feels Like: 23 °F
Forecast: 34 / 38 °F
Wind: 16 mph from Southeast

Location: Billund Lufthavn

Current Time: Nov 29, 2014 at 10:58:54 AM

Latest Report: Nov 29, 2014 at 10:20 AM


Visibility: N/A

Pressure: 30.24 "Hg

Humidity: 81%

Dew point: 28 °F

Location of VejleLocation

Historic Weather in Vejle — Graph

°F

Vejle temperature yesterday

Maximum temperature yesterday: 41 °F (at 12:20 PM)
Minimum temperature yesterday: 36 °F (at 1:20 AM)
Average temperature yesterday: 38 °F

Past Weeks' High & Low Weather Summary

 TemperatureHumidityPressure
High52 °F (Nov 14, 5:50 PM)100% (Nov 14, 10:50 AM)30.42 "Hg (Nov 14, 10:50 AM)
Low27 °F (Nov 21, 11:50 PM)66% (Nov 27, 2:20 PM)29.68 "Hg (Nov 16, 1:50 PM)
Average42 °F91%30.08 "Hg
* Reported Nov 14 9:20 AM — Nov 29 9:50 AM, Vejle, Weather by CustomWeather, © 2014

Note: Actual official high and low records may vary slightly from our data, if they occured in-between our weather recording intervals... More about our weather records

Advertising

Vejle weather history for previous 24 hours

 ConditionsComfort  
Time TempWeatherWind HumidityBarometerVisibility
9:50 AM
Nov 29
34 °FPartly sunny.14 mph81%30.24 "HgN/A
9:20 AM36 °FOvercast.14 mph75%30.24 "HgN/A
8:50 AM36 °FOvercast.14 mph75%30.21 "HgN/A
8:20 AM36 °FPassing clouds.13 mph81%30.21 "HgN/A
7:50 AM36 °FOvercast.15 mph75%30.21 "HgN/A
7:20 AM36 °FOvercast.15 mph75%30.21 "HgN/A
6:50 AM36 °FOvercast.14 mph81%30.21 "HgN/A
6:20 AM36 °FOvercast.10 mph81%30.21 "HgN/A
5:50 AM36 °FOvercast.9 mph81%30.21 "HgN/A
5:20 AM36 °FPassing clouds.8 mph81%30.21 "HgN/A
4:20 AM36 °FPassing clouds.12 mph75%30.21 "HgN/A
3:50 AM34 °FPassing clouds.12 mph81%30.21 "HgN/A
3:20 AM34 °FPassing clouds.12 mph81%30.21 "HgN/A
2:50 AM34 °FOvercast.10 mph81%30.21 "HgN/A
2:20 AM34 °FPassing clouds.12 mph81%30.21 "HgN/A
1:50 AM36 °FPassing clouds.13 mph70%30.21 "HgN/A
1:20 AM36 °FPassing clouds.14 mph70%30.21 "HgN/A
12:50 AM36 °FPassing clouds.12 mph75%30.21 "HgN/A
12:20 AM36 °FPassing clouds.16 mph75%30.21 "HgN/A
11:50 PM
Nov 28
37 °FOvercast.13 mph70%30.24 "HgN/A
11:20 PM37 °FOvercast.17 mph70%30.21 "HgN/A
10:50 PM37 °FOvercast.14 mph70%30.21 "HgN/A
10:20 PM37 °FOvercast.13 mph70%30.21 "HgN/A
9:50 PM37 °FOvercast.13 mph75%30.21 "HgN/A
9:20 PM37 °FOvercast.17 mph70%30.21 "HgN/A
8:50 PM37 °FOvercast.16 mph75%30.21 "HgN/A
8:20 PM37 °FOvercast.17 mph75%30.18 "HgN/A
7:50 PM39 °FOvercast.17 mph75%30.18 "HgN/A
7:20 PM39 °FOvercast.16 mph75%30.18 "HgN/A
6:50 PM37 °FPassing clouds.20 mph87%30.18 "HgN/A
6:20 PM39 °FOvercast.16 mph75%30.15 "HgN/A
5:50 PM39 °FOvercast.14 mph75%30.15 "HgN/A
5:20 PM39 °FPassing clouds.14 mph75%30.15 "HgN/A
4:50 PM39 °FPassing clouds.16 mph75%30.15 "HgN/A
4:20 PM39 °FPassing clouds.21 mph75%30.15 "HgN/A
3:50 PM39 °FScattered clouds.17 mph75%30.15 "HgN/A
3:20 PM41 °FPartly sunny.21 mph76%30.15 "HgN/A
2:50 PM41 °FPartly sunny.20 mph76%30.15 "HgN/A
2:20 PM41 °FScattered clouds.17 mph76%30.15 "HgN/A
1:50 PM41 °FPartly sunny.20 mph76%30.15 "HgN/A
1:20 PM41 °FPartly sunny.18 mph76%30.15 "HgN/A
12:50 PM41 °FPartly sunny.16 mph76%30.15 "HgN/A
12:20 PM41 °FScattered clouds.17 mph70%30.15 "HgN/A
11:20 AM39 °FChilly.20 mph75%30.15 "HgN/A
10:50 AM39 °FChilly.20 mph81%30.12 "HgN/A
10:20 AM39 °FChilly.17 mph81%30.12 "HgN/A
Weather by CustomWeather, © 2014

See weather overviewHow to use our weather pages